Weather History for Cork, Ireland

Change the Weather History Date:

Thursday, November 15, 2012

  Actual Average Record
Temperature  
Mean Temperature 46 °F -  
Max Temperature 48 °F 48 °F 57 °F (1997)
Min Temperature 44 °F 39 °F 35 °F (2010)
Degree Days  
Heating Degree Days 19    
Moisture  
Dew Point 48 °F    
Average Humidity 100    
Maximum Humidity 100    
Minimum Humidity 100    
Precipitation  
Precipitation 0.00 in 0.16 in - ()
Sea Level Pressure  
Sea Level Pressure 30.14 in    
Wind  
Wind Speed 2 mph ()    
Max Wind Speed 5 mph    
Max Gust Speed -    
Visibility 1.1 miles    
Events Fog    
Averages and records for this station are not official NWS values.
T = Trace of Precipitation, MM = Missing Value Source: Averaged Metar Reports

Daily Weather History Graph

Daily Weather History Graph

Search for Another Location

Airport:

Trip Planner

Search our weather history database for the weather conditions in past years. The results will help you decide how hot, cold, wet, or windy it might be!

Date:

Astronomy

Nov. 15, 2012 Rise Set
Actual Time 7:53 AM GMT 4:42 PM GMT
Civil Twilight 7:16 AM GMT 5:20 PM GMT
Nautical Twilight 6:35 AM GMT 6:01 PM GMT
Astronomical Twilight 5:55 AM GMT 6:40 PM GMT
Moon 9:44 AM GMT (11/15) 6:10 PM GMT (11/15)
Length of Visible Light 10h 03m
Length of Day
8h 48m
Waxing Crescent, 4% of the Moon is Illuminated
Nov 15
Waxing Crescent
Nov 20
First Quarter
Nov 28
Full
Dec 6
Last Quarter
Dec 13
New

Hourly Weather History & Observations

Time (GMT) Temp. Windchill Dew Point Humidity Pressure Visibility Wind Dir Wind Speed Gust Speed Precip Events Conditions
12:00 AM 50.0 °F - 50.0 °F 100% 30.24 in 3.7 mi ESE 1.2 mph - N/A   Overcast
12:30 AM 50.0 °F - 50.0 °F 100% 30.21 in 3.1 mi SE 3.5 mph - N/A   Overcast
1:00 AM 50.0 °F - 50.0 °F 100% 30.21 in 2.5 mi ESE 2.3 mph - N/A   Overcast
1:30 AM 50.0 °F - 50.0 °F 100% 30.21 in 2.5 mi Calm Calm - N/A   Overcast
2:00 AM 48.2 °F - 48.2 °F 100% 30.21 in 2.5 mi Calm Calm - N/A   Overcast
2:30 AM 50.0 °F - 50.0 °F 100% 30.18 in 2.2 mi Calm Calm - N/A   Overcast
3:00 AM 48.2 °F - 48.2 °F 100% 30.18 in 0.2 mi ESE 3.5 mph - N/A Fog Fog
3:30 AM 50.0 °F - 50.0 °F 100% 30.18 in 1.6 mi ESE 1.2 mph - N/A   Mostly Cloudy
4:00 AM 48.2 °F - 48.2 °F 100% 30.18 in 0.6 mi Calm Calm - N/A   Mostly Cloudy
4:30 AM 48.2 °F - 48.2 °F 100% 30.18 in 0.2 mi Calm Calm - N/A Fog Fog
5:00 AM 48.2 °F - 48.2 °F 100% 30.18 in 0.2 mi SE 2.3 mph - N/A Fog Fog
5:30 AM 48.2 °F - 48.2 °F 100% 30.18 in 0.1 mi ESE 2.3 mph - N/A Fog Fog
6:00 AM 48.2 °F - 48.2 °F 100% 30.18 in 0.1 mi ESE 1.2 mph - N/A Fog Fog
6:30 AM 48.2 °F - 48.2 °F 100% 30.18 in 0.1 mi ESE 2.3 mph - N/A Fog Fog
7:00 AM 46.4 °F - 46.4 °F 100% 30.18 in 0.1 mi SE 2.3 mph - N/A Fog Fog
7:30 AM 46.4 °F - 46.4 °F 100% 30.18 in 0.1 mi Calm Calm - N/A Fog Fog
8:00 AM 46.4 °F - 46.4 °F 100% 30.18 in 0.5 mi Calm Calm - N/A Fog Fog
8:30 AM 46.4 °F - 46.4 °F 100% 30.18 in 0.2 mi Variable 1.2 mph - N/A Fog Fog
9:00 AM 44.6 °F 43.1 °F 44.6 °F 100% 30.18 in 0.5 mi North 3.5 mph - N/A Fog Fog
9:30 AM 46.4 °F - 46.4 °F 100% 30.18 in 0.4 mi Variable 2.3 mph - N/A Fog Fog
10:00 AM 44.6 °F - 44.6 °F 100% 30.18 in 0.1 mi Calm Calm - N/A Fog Fog
10:30 AM 46.4 °F - 46.4 °F 100% 30.18 in 0.1 mi East 2.3 mph - N/A Fog Fog
11:00 AM 46.4 °F 45.2 °F 46.4 °F 100% 30.15 in 0.1 mi ESE 3.5 mph - N/A Fog Fog
11:30 AM 46.4 °F - 46.4 °F 100% 30.15 in 0.1 mi ESE 1.2 mph - N/A Fog Fog
12:00 PM 48 °F - 48 °F 100% 30.18 in 0 mi Calm Calm - - Fog Partial Fog
12:00 PM 48.2 °F - 48.2 °F 100% 30.15 in 0.2 mi Calm Calm - N/A Fog Fog
12:30 PM 48.2 °F - 48.2 °F 100% 30.15 in 0.2 mi ESE 4.6 mph - N/A Fog Fog
1:00 PM 48.2 °F - 48.2 °F 100% 30.12 in 0.1 mi ESE 4.6 mph - N/A Fog Fog
1:30 PM 48.2 °F - 48.2 °F 100% 30.12 in 0.2 mi ESE 3.5 mph - N/A Fog Fog
2:00 PM 48.2 °F - 48.2 °F 100% 30.12 in 0.2 mi SSE 3.5 mph - N/A Fog Fog
2:30 PM 48.2 °F - 48.2 °F 100% 30.09 in 1.1 mi South 3.5 mph - N/A   Mostly Cloudy
3:00 PM 48.2 °F - 48.2 °F 100% 30.09 in 6.2 mi South 3.5 mph - N/A   Mostly Cloudy
3:30 PM 48.2 °F - 48.2 °F 100% 30.09 in 3.7 mi Calm Calm - N/A   Mostly Cloudy
4:00 PM 48.2 °F - 48.2 °F 100% 30.09 in 3.7 mi South 2.3 mph - N/A   Mostly Cloudy
4:30 PM 48.2 °F - 48.2 °F 100% 30.09 in 3.1 mi Variable 1.2 mph - N/A   Mostly Cloudy
5:00 PM 48.2 °F - 48.2 °F 100% 30.09 in 2.2 mi Calm Calm - N/A   Overcast
5:30 PM 48.2 °F - 48.2 °F 100% 30.09 in - Calm Calm - N/A   Overcast
6:00 PM 47 °F - 47 °F 100% 30.11 in 2 mi SSW 2.2 mph - -   Mist
6:00 PM 48.2 °F - 48.2 °F 100% 30.09 in - SSW 1.2 mph - N/A   Overcast
6:30 PM 48.2 °F - 48.2 °F 100% 30.09 in 1.7 mi South 2.3 mph - N/A   Mostly Cloudy
7:00 PM 48.2 °F - 48.2 °F 100% 30.09 in 0.4 mi South 3.5 mph - N/A Fog Fog
7:30 PM 48.2 °F - 48.2 °F 100% 30.09 in 0.2 mi South 3.5 mph - N/A Fog Fog
8:00 PM 48.2 °F - 48.2 °F 100% 30.06 in 0.3 mi SSW 4.6 mph - N/A Fog Fog
8:30 PM 48.2 °F - 48.2 °F 100% 30.06 in 0.4 mi South 3.5 mph - N/A Fog Fog
9:00 PM 48.2 °F - 48.2 °F 100% 30.06 in 0.6 mi SSW 3.5 mph - N/A Fog Fog
9:30 PM 48.2 °F - 48.2 °F 100% 30.06 in 1.2 mi SSW 3.5 mph - N/A   Mostly Cloudy
10:00 PM 48.2 °F - 48.2 °F 100% 30.06 in 0.5 mi SSW 3.5 mph - N/A Fog Fog
10:30 PM 48.2 °F - 48.2 °F 100% 30.06 in 0.4 mi SW 2.3 mph - N/A Fog Fog
11:00 PM 48.2 °F - 48.2 °F 100% 30.04 in 1.2 mi WSW 2.3 mph - N/A   Mostly Cloudy
11:30 PM 48.2 °F - 48.2 °F 100% 30.04 in 1.9 mi WSW 1.2 mph - N/A   Mostly Cloudy